Flag for Saudi Arabia Weather past 2 weeks in Makkah, Saudi Arabia

Now
84 °F

Clear.


Feels Like: 91 °F
Forecast: 77 / 98 °F
Wind: No wind

Location: Mecca Airport

Current Time: Oct 22, 2014 at 3:02:49 AM

Latest Report: Oct 22, 2014 at 2:00 AM


Visibility: 10 mi

Pressure: 29.86 "Hg

Humidity: 70%

Dew point: 73 °F

Location of MakkahLocation

Historic Weather in Makkah — Graph

°F

Makkah temperature yesterday

Maximum temperature yesterday: 102 °F (at 2:00 PM)
Minimum temperature yesterday: 81 °F (at 6:00 AM)
Average temperature yesterday: 90 °F

Past Weeks' High & Low Weather Summary

 TemperatureHumidityPressure
High108 °F (Oct 7, 2:00 PM)84% (Oct 9, 4:00 AM)29.92 "Hg (Oct 9, 4:00 AM)
Low79 °F (Oct 17, 6:00 AM)22% (Oct 16, 2:00 PM)29.74 "Hg (Oct 7, 3:00 PM)
Average91 °F53%29.83 "Hg
* Reported Oct 7 1:00 AM — Oct 22 1:00 AM, Makkah, Weather by CustomWeather, © 2014

Note: Actual official high and low records may vary slightly from our data, if they occured in-between our weather recording intervals... More about our weather records

Advertising

Makkah weather history for previous 24 hours

 ConditionsComfort  
Time TempWeatherWind HumidityBarometerVisibility
1:00 AM
Oct 22
86 °FClear.No wind62%29.89 "Hg10 mi
12:00 AM86 °FClear.No wind66%29.89 "Hg10 mi
11:00 PM
Oct 21
88 °FClear.No wind62%29.92 "Hg10 mi
10:00 PM88 °FClear.No wind62%29.92 "Hg10 mi
9:00 PM88 °FClear.No wind62%29.92 "Hg10 mi
8:00 PM90 °FClear.2 mph63%29.89 "Hg10 mi
7:00 PM91 °FClear.2 mph56%29.86 "Hg10 mi
6:00 PM95 °FClear.2 mph53%29.83 "Hg10 mi
5:00 PM99 °FSunny.2 mph44%29.80 "Hg10 mi
4:00 PM100 °FSunny.2 mph40%29.80 "Hg10 mi
3:00 PM102 °FSunny.2 mph35%29.80 "Hg10 mi
2:00 PM102 °FSunny.2 mph37%29.83 "Hg10 mi
1:00 PM100 °FSunny.5 mph37%29.86 "Hg10 mi
12:00 PM99 °FSunny.2 mph42%29.86 "Hg10 mi
11:00 AM97 °FSunny.No wind44%29.89 "Hg10 mi
10:00 AM91 °FSunny.No wind52%29.92 "Hg10 mi
9:00 AM88 °FSunny.No wind62%29.89 "Hg10 mi
8:00 AM82 °FSunny.No wind70%29.89 "Hg10 mi
7:00 AM81 °FSunny.No wind79%29.89 "Hg10 mi
6:00 AM81 °FClear.No wind79%29.86 "Hg10 mi
5:00 AM82 °FClear.No wind74%29.83 "Hg10 mi
4:00 AM82 °FClear.No wind70%29.83 "Hg10 mi
3:00 AM82 °FClear.No wind70%29.83 "Hg10 mi
Weather by CustomWeather, © 2014

See weather overviewHow to use our weather pages